星链-31880 (STARLINK-31880 )

导读

STARLINK-31880是美国SpaceX星链互联网卫星星座中的一员,于2024年5月6日发射入轨,承担卫星互联网服务功能。星链系统依托低轨卫星组网,可向全球提供高速互联网接入服务,覆盖偏远地区,补充地面网络覆盖不足,STARLINK-31880入轨进一步扩充了星链星座的服务能力与覆盖范围。

Basic Information
目录编号:
59661
目录名称:
STARLINK-31880
国际标识:
2024-084H
轨道中心:
EARTH
卫星名称:
星链-31880
卫星全名:
星链-31880 (STARLINK-31880 )
卫星状态:
在轨 (已飞行851 天)
发射日期:
2024-05-06 UTC
国别 :
美国 (US)
星等 :
--
Orbit Information
数据来源 国际轨道数据 AOE轨道数据
星历时间 2026-09-04T07:46:32+0800
13小时前
查看轨道信息
2026-08-30T23:00:00+0800
4天前
查看轨道信息
半长轴 6861.211km 6861.184km
偏心率 0.0001314 0.0002001
轨道倾角 43.002° 43.005°
近地点辐角 272.251° 248.202°
升交点赤经 111.248° 135.908°
平近点角 87.819° 195.856°
近地点 482.172km 481.674km
远地点 483.976km 484.42km
周期 94.267分钟 94.267分钟
每日圈数 15.275717 15.275807
Detailed Information
固有亮度:
5
最大亮度:
1.5
卫星平台:
Starlink v2.0 mini
覆盖范围:
全球
运营商:
太空探索技术公司
运营商所在国:
美国
制造商(研发单位):
太空探索技术公司
制造商所在国:
美国
使用方式:
暂无
Satellite Introduction
星链(Starlink)计划是由太空探索技术公司(SpaceX)提出的一个巨型低轨卫星互联网星座项目,计划在2019年至2024年间在太空搭建由约1.2万颗卫星组成的“星链”网络,其中1584颗将部署在地球上空550千米处的近地轨道,并从2020年开始工作。该卫星仍在工作。
2D Orbit Map
3D Orbit Map
Orbit Altitude Analysis Chart
Orbit Inclination Analysis Chart
Orbit Comprehensive Analysis Chart
View Comprehensive Chart
Conjunction Data List
Event ID Objects TCA Miss Dist (km) Collision Risk Probability Collision Risk Index (CRI) Action
CDM_260905-104205-966106-379321
2026-09-05T
10:42:49+0000
1.028 km
极远距离
5.01086E-6 低风险 0.49